Flag for U.S.A. Weather past 2 weeks in Naples, Florida, U.S.A.

Now
78 °F

Sunny.


Feels Like: 81 °F
Forecast: 76 / 88 °F
Wind: 5 mph from Southeast

Location: Naples Municipal

Current Time: Sep 2, 2014 at 8:40:30 PM

Latest Report: Sep 2, 2014 at 7:53 PM


Visibility: 10 mi

Pressure: 30.00 "Hg

Humidity: 82%

Dew point: 72 °F

Location of NaplesLocation

Historic Weather in Naples — Graph

°F

Naples temperature yesterday

Maximum temperature yesterday: 91 °F (at 12:53 PM)
Minimum temperature yesterday: 76 °F (at 6:53 AM)
Average temperature yesterday: 80 °F

Past Weeks' High & Low Weather Summary

 TemperatureHumidityPressure
High95 °F (Aug 30, 3:53 PM)100% (Aug 19, 12:53 AM)30.12 "Hg (Aug 19, 12:53 AM)
Low73 °F (Aug 27, 5:53 AM)46% (Aug 26, 5:53 PM)29.73 "Hg (Aug 25, 3:53 PM)
Average83 °F79%29.97 "Hg
* Reported Aug 18 6:53 PM — Sep 2 6:53 PM, Naples, Weather by CustomWeather, © 2014

Note: Actual official high and low records may vary slightly from our data, if they occured in-between our weather recording intervals... More about our weather records

Advertising

Naples weather history for previous 24 hours

 ConditionsComfort  
Time TempWeatherWind HumidityBarometerVisibility
6:53 PM
Sep 2
79 °FPassing clouds.8 mph82%30.00 "Hg10 mi
5:53 PM82 °FPassing clouds.7 mph77%29.99 "Hg10 mi
5:00 PM83 °FScattered clouds.13 mph74%30.00 "Hg10 mi
3:53 PM82 °FPassing clouds.10 mph82%30.01 "Hg10 mi
2:53 PM80 °FThunderstorms. Mostly cloudy.10 mph87%30.03 "Hg9 mi
1:53 PM87 °FMostly cloudy.13 mph65%30.02 "Hg10 mi
12:53 PM89 °FBroken clouds.6 mph59%30.04 "Hg10 mi
11:53 AM88 °FScattered clouds.5 mph63%30.06 "Hg10 mi
9:53 AM84 °FSunny.9 mph77%30.07 "Hg10 mi
8:53 AM80 °FSunny.8 mph85%30.05 "Hg10 mi
7:53 AM76 °FClear.3 mph94%30.03 "Hg9 mi
6:53 AM75 °FMild.5 mph94%30.01 "Hg10 mi
5:53 AM75 °FClear.5 mph96%30.00 "Hg10 mi
4:53 AM75 °FClear.5 mph96%30.01 "Hg10 mi
3:53 AM76 °FClear.3 mph94%30.03 "Hg10 mi
2:53 AM76 °FClear.3 mph97%30.04 "Hg10 mi
1:53 AM76 °FClear.6 mph97%30.06 "Hg10 mi
12:53 AM77 °FClear.5 mph94%30.07 "Hg10 mi
11:53 PM
Sep 1
77 °FClear.7 mph94%30.08 "Hg10 mi
10:53 PM77 °FClear.3 mph96%30.08 "Hg10 mi
9:53 PM78 °FPassing clouds.3 mph93%30.07 "Hg10 mi
8:53 PM79 °FOvercast.No wind90%30.05 "Hg10 mi
Weather by CustomWeather, © 2014

See weather overviewHow to use our weather pages